Weather History for Rome, OR

Change the Weather History Date:

Friday, July 5, 2013

  Actual Average Record
Temperature  
Mean Temperature 74 °F 70 °F  
Max Temperature 92 °F 90 °F 106 °F (2007)
Min Temperature 56 °F 50 °F 35 °F (1986)
Degree Days  
Heating Degree Days 0 1  
Month to date heating degree days 0 5  
Since 1 June heating degree days 94 130  
Since 1 July heating degree days 0 5  
Cooling Degree Days 9 6  
Month to date cooling degree days 81 26  
Year to date cooling degree days 239 98  
Since 1 June cooling degree days 217 88  
Growing Degree Days 24 (Base 50)    
Moisture  
Dew Point 41 °F    
Average Humidity 49    
Maximum Humidity 86    
Minimum Humidity 12    
Precipitation  
Precipitation 0.00 in 0.02 in 0.21 in (1961)
Month to date precipitation 0.41 0.06  
Year to date precipitation 3.03 5.68  
Sea Level Pressure  
Sea Level Pressure 29.75 in    
Wind  
Wind Speed 8 mph (North)    
Max Wind Speed 22 mph    
Max Gust Speed 28 mph    
T = Trace of Precipitation, MM = Missing Value Source: NWS Daily Summary

Daily Weather History Graph

Daily Weather History Graph

Search for Another Location

Airport:

Trip Planner

Search our weather history database for the weather conditions in past years. The results will help you decide how hot, cold, wet, or windy it might be!

Date:

Astronomy

Jul. 05, 2013 Rise Set
Actual Time 5:20 AM PDT 8:31 PM PDT
Civil Twilight 4:45 AM PDT 9:06 PM PDT
Nautical Twilight 4:01 AM PDT 9:50 PM PDT
Astronomical Twilight 3:07 AM PDT 10:44 PM PDT
Moon 3:24 AM PDT (7/5) 6:29 PM PDT (7/5)
Length of Visible Light 16h 20m
Length of Day
15h 11m
Waning Crescent, 6% of the Moon is Illuminated
Jul 5
Waning Crescent
Jul 8
New
Jul 15
First Quarter
Jul 22
Full
Jul 29
Last Quarter

Hourly Weather History & Observations

Time (PDT) Temp. Dew Point Humidity Pressure Visibility Wind Dir Wind Speed Gust Speed Precip Events Conditions
12:52 AM 64.0 °F 53.1 °F 67% 29.76 in - SSE 5.8 mph - N/A   Unknown
1:52 AM 63.0 °F 53.1 °F 70% 29.77 in - ESE 3.5 mph - N/A   Unknown
2:52 AM 57.9 °F 53.1 °F 84% 29.78 in - Calm Calm - N/A   Unknown
3:52 AM 59.0 °F 51.1 °F 75% 29.81 in - NNE 6.9 mph - N/A   Unknown
4:52 AM 57.0 °F 50.0 °F 77% 29.82 in - ENE 5.8 mph - N/A   Unknown
5:52 AM 59.0 °F 52.0 °F 78% 29.81 in - NE 6.9 mph - N/A   Unknown
6:52 AM 62.1 °F 48.0 °F 60% 29.81 in - Calm Calm - N/A   Unknown
7:52 AM 68.0 °F 45.0 °F 43% 29.80 in - NNE 4.6 mph - N/A   Unknown
8:52 AM 72.0 °F 42.1 °F 34% 29.81 in - NNE 5.8 mph - N/A   Unknown
9:52 AM 75.9 °F 39.9 °F 27% 29.79 in - North 5.8 mph - N/A   Unknown
10:52 AM 79.0 °F 41.0 °F 26% 29.78 in - Variable 5.8 mph - N/A   Unknown
11:52 AM 82.0 °F 41.0 °F 23% 29.76 in - NW 6.9 mph - N/A   Unknown
12:52 PM 84.0 °F 43.0 °F 24% 29.75 in - Variable 4.6 mph - N/A   Unknown
1:52 PM 87.1 °F 45.0 °F 23% 29.71 in - South 5.8 mph - N/A   Unknown
2:52 PM 88.0 °F 45.0 °F 22% 29.71 in - Variable 6.9 mph - N/A   Unknown
3:52 PM 91.0 °F 42.1 °F 18% 29.68 in - WSW 21.9 mph 25.3 mph N/A   Unknown
4:52 PM 89.1 °F 39.9 °F 18% 29.68 in - North 12.7 mph 21.9 mph N/A   Unknown
5:52 PM 90.0 °F 36.0 °F 15% 29.65 in - North 20.7 mph 26.5 mph N/A   Unknown
6:52 PM 88.0 °F 36.0 °F 16% 29.66 in - NW 11.5 mph 21.9 mph N/A   Unknown
7:52 PM 82.9 °F 28.9 °F 14% 29.69 in - NNW 15.0 mph - N/A   Unknown
8:52 PM 79.0 °F 21.0 °F 12% 29.73 in - NNW 9.2 mph - N/A   Unknown
9:52 PM 73.0 °F 26.1 °F 17% 29.75 in - NW 6.9 mph - N/A   Unknown
10:52 PM 70.0 °F 27.0 °F 20% 29.76 in - NW 5.8 mph - N/A   Unknown
11:52 PM 70.0 °F 30.0 °F 23% 29.76 in - North 9.2 mph - N/A   Unknown